Location: Duffs
(47.4500°N, 53.1167°W)
Time: 11:44:50
(UTC+00:00)

ISS - Pass Details

Date: 29 May 2022
Orbit: 414 x 420 km, 51.6° (Epoch: 01 July)

Event Time Altitude Azimuth Distance (km) Brightness Sun altitude
Rises 01:06:03 0° 290° (WNW) 2,368 1.0 -13.8°
Reaches altitude 10° 01:08:21 10° 277° (W) 1,499 -0.4 -14.0°
Maximum altitude 01:11:12 26° 219° (SW) 856 -2.4 -14.2°
Enters shadow 01:12:14 22° 189° (S) 959 -2.4 -14.3°
